Main page
METAR-TAF:

METAR-TAF

Airports :

Pembrey Airport

Pembrey, Wales

latitude: 51-43N, longitude: 004-22W, elevation: 3 m

Current weather observation

The report was made 43 minutes ago, at 19:50 UTC
Wind 13 kt from the South
Temperature 14°C
Humidity 94%
Pressure 997 hPa
Visibility: 2700 m

METAR: EGOP 281950Z AUTO 19013KT 2700 // BKN060/// 14/13 Q0997

Time: 21:33 (20:33 UTC)


TAF: missing

Weather observations and forecasts of more than 4000 airports (METAR and TAF reports).

The available stations are represented by yellow and red dots on the map.

Hover mouse over dot to see the name of the station.

Then click to see weather observations and forecasts.

To change the map : click on the green buttons with a black cross to zoom in, on the green button with a dash to zoom out, or on the green arrows for adjacent maps.


METAR-TAF: